User: anonymous   Login
Location: ?????????
(42.1392°N, 44.1931°E)
Time: 16:12:54
(UTC+00:00)
Language:

Okean 3 Rocket - Orbit

View from above orbital plane
View from above orbital plane
View from above satellite
View from above satellite

Ground track
Ground track

The orbit data is extracted from the following two-line orbital elements,

1 21398U 91039B   21173.83083073  .00000054  00000-0  40616-5 0  9992
2 21398  82.5229 300.7635 0022690  57.3300 303.0098 14.79805109599767
Epoch (UTC): 22 June 2021 19:56:23
Eccentricity: 0.0022690
inclination: 82.5229°
perigee height: 614 km
apogee height: 646 km
right ascension of ascending node: 300.7635°
argument of perigee: 57.3300°
revolutions per day: 14.79805109
mean anomaly at epoch: 303.0098°
orbit number at epoch: 59976

The dashed part of the orbit path shows where the satellite is in the earth's shadow,  

DLR